Regional Weather Roundup
Issued by NWS

Home | Current Version | Previous Version | Text Only | Print | Product List | Glossary Off
Versions: 1 2 3 4 5 6 7 8 9 10 11 12 13 14 15 16 17 18 19 20 21 22 23 24 25 26 27 28 29 30 31 32 33 34 35 36 37 38 39 40 41 42 43 44 45 46 47 48 49 50

526
ASUS44 KLIX 200301
RWRLA
LOUISIANA WEATHER ROUNDUP
NATIONAL WEATHER SERVICE NEW ORLEANS LA
900 PM CST FRI DEC 19 2014

NOTE: "FAIR" INDICATES FEW OR NO CLOUDS BELOW 12,000 FEET WITH NO
      SIGNIFICANT WEATHER AND/OR OBSTRUCTIONS TO VISIBILITY.
      SKY/WX - SKY CONDITION AND SIGNIFICANT WEATHER.
      TMP - AIR TEMPERATURE.    DP   - DEWPOINT TEMPERATURE.
      RH  - RELATIVE HUMIDITY.  PRES - PRESSURE.
      HX  - HEAT INDEX.         WCI  - WIND CHILL INDEX.

*  THESE STATIONS ARE NOT NWS OR FAA STATIONS AND ARE NOT UNDER
   NWS QUALITY CONTROL.

LAZ040-048-061>063-065-066-069-200400-
SOUTHEAST LOUISIANA

CITY           SKY/WX    TMP DP  RH WIND       PRES   REMARKS
N.O. AUDUBON     N/A     50  49  99 MISG        N/A
N.O. INTL ARPT LGT RAIN  51  48  89 NE13      30.09S FOG
N.O. LAKEFRONT LGT RAIN  52  48  86 NE16      30.10F
N.O. DOWNTOWN* CLOUDY    52  45  76 NE5       30.09F
SLIDELL        LGT RAIN  49  46  90 NE8       30.10S
BATON ROUGE    CLOUDY    49  46  90 NE6       30.10R
BOOTHVILLE     CLOUDY    59  58  96 NE10      30.05R
BELLE CHASSE   LGT RAIN  51  50  96 NE13G20   30.07F FOG
BOGALUSA*      RAIN      49  46  90 E6        30.13F
GALLIANO*      NOT AVBL
NEW ROADS*     NOT AVBL
GONZALES*      NOT AVBL
HAMMOND*       NOT AVBL
HOUMA*         RAIN      51  50  97 NE13      30.07R
PORT FOURCHON* CLOUDY    59  57  94 NE13G21   30.07S

$$

LAZ041-044-053-054-200400-
SOUTHWEST LOUISIANA

CITY           SKY/WX    TMP DP  RH WIND       PRES   REMARKS
LAKE CHARLES   LGT RAIN  52  50  93 NE12      30.07R
LAFAYETTE      RAIN      50 N/A N/A NE8       30.08S
PATTERSON      CLOUDY    52  46  82 NE10      30.09R
SALT POINT       N/A     54  49  83 VRB7      30.05S
NEW IBERIA     LGT RAIN  51  49  92 NE7       30.08S
CHENAULT AIRPK LGT RAIN  51  50  97 N9        30.08R

$$

LAZ027-028-200400-
CENTRAL LOUISIANA

CITY           SKY/WX    TMP DP  RH WIND       PRES   REMARKS
FORT POLK      CLOUDY    46  46 100 N14G21    30.12S FOG
ALEXANDRIA INT CLOUDY    48  46  93 N7        30.13R
ALEXANDRIA     CLOUDY    48  45  89 VRB7      30.14R

$$

LAZ001-002-200400-
NORTHWEST LOUISIANA

CITY           SKY/WX    TMP DP  RH WIND       PRES   REMARKS
SHREVEPORT     DRIZZLE   47  45  93 E14       30.18R
BARKSDALE AFB  NOT AVBL
DTN SHREVEPORT CLOUDY    47  43  86 NE6       30.19R

$$

LAZ014-016-200400-
NORTHEAST LOUISIANA

CITY           SKY/WX    TMP DP  RH WIND       PRES   REMARKS
MONROE         CLOUDY    46  45  96 NE9       30.19F
TALLULAH       CLOUDY    47  44  90 N12       30.19R

$$




USA.gov is the U.S. government's official web portal to all federal, state and local government web resources and services.